Theta_e
340 341 339 335 335 337 337 336 335 336 336 337 336 336 335 335 335 334 333 334 333 334 333 332 331 329 328 328 327 326 326 326 332 334 336 339 341 340 339 340 344 347 346
342 340 339 337 336 336 336 336 335 335 334 334 334 334 334 335 335 333 334 334 334 333 333 331 331 329 327 325 324 323 323 324 325 334 335 338 340 341 338 338 342 342 342
341 340 338 337 337 337 337 337 336 335 334 335 335 334 334 334 334 334 334 333 334 334 333 330 330 328 326 325 323 321 322 322 323 325 333 337 339 340 340 342 343 340 339
340 339 338 337 337 338 337 338 336 335 335 335 334 334 333 334 333 334 333 333 332 333 331 330 329 328 326 323 322 321 319 320 322 322 326 331 338 339 340 340 343 343 343
336 336 336 336 337 338 338 337 336 335 336 335 333 333 334 334 333 332 332 330 331 330 331 330 329 328 327 326 324 323 320 319 321 322 324 326 330 338 340 339 341 343 345
338 336 336 336 337 338 338 338 337 336 335 333 333 334 332 333 331 330 328 328 328 327 328 329 328 327 327 326 324 324 323 319 320 321 323 323 325 331 338 340 340 343 345
337 337 337 337 337 338 337 337 336 335 333 333 333 334 333 332 332 330 327 326 326 328 328 329 328 327 325 324 324 325 323 320 320 321 323 324 325 327 333 339 340 339 341
340 340 339 338 338 339 338 336 335 335 334 333 333 333 331 331 330 329 327 327 327 328 329 328 327 326 325 326 323 323 322 320 321 322 323 323 324 326 329 337 339 338 342
341 341 341 339 339 339 339 338 336 335 333 334 333 332 331 329 329 330 327 327 329 327 328 328 328 325 324 324 322 321 320 321 322 321 321 321 322 323 326 332 337 338 341
340 341 341 340 340 339 339 337 336 334 333 325 332 333 332 331 329 326 325 320 322 326 326 327 326 325 324 322 321 321 321 321 320 321 321 324 325 323 323 325 333 339 337
340 341 340 340 339 337 337 336 336 334 328 331 333 331 331 328 326 322 325 324 324 325 324 324 324 324 323 322 319 321 320 319 321 321 320 322 330 329 325 327 334 342 339
340 339 339 339 338 337 335 335 332 332 333 333 331 330 326 327 327 324 325 325 322 321 323 324 323 321 323 318 319 320 318 319 319 321 320 321 322 332 331 336 336 338 339
343 342 340 339 337 337 335 333 335 335 334 332 330 329 327 326 322 324 322 321 320 321 322 323 322 323 317 316 318 319 319 317 318 319 321 322 321 323 336 338 339 338 337
345 345 342 341 340 338 335 336 334 333 330 329 327 327 326 324 324 320 317 318 319 320 321 321 323 318 315 313 313 315 317 317 318 319 320 321 321 320 322 332 340 341 340
345 344 341 340 338 336 332 330 330 324 323 324 322 322 321 321 315 316 316 318 316 315 318 321 321 318 314 312 312 313 313 313 315 318 319 320 321 320 320 322 326 332 340
339 338 337 335 332 333 330 321 322 322 321 320 319 318 316 316 316 315 316 317 316 315 317 319 317 315 313 310 311 311 312 313 312 314 317 317 322 321 320 320 321 321 322
335 334 331 328 328 331 330 331 327 320 320 320 318 315 313 312 312 313 314 316 317 316 317 315 313 312 311 309 308 309 309 310 312 313 313 315 316 322 321 320 320 320 320
332 330 328 326 328 330 330 328 327 327 325 322 317 314 313 312 312 313 315 318 316 314 312 311 309 308 306 306 306 307 306 307 310 311 312 312 313 316 323 322 321 320 320
329 329 329 329 328 326 325 323 322 321 321 319 318 315 313 312 311 311 311 312 312 310 308 305 302 300 298 298 300 301 303 304 305 308 310 310 310 311 313 321 322 322 321
328 325 326 327 324 324 322 321 320 319 317 317 315 310 310 311 310 310 309 308 308 307 305 302 299 298 297 296 296 298 299 302 303 304 307 308 310 310 311 315 317 317 320
326 325 324 324 323 320 319 318 317 317 317 315 311 307 308 309 308 308 307 307 307 307 307 305 303 302 300 298 296 296 297 298 301 302 302 303 304 310 310 310 312 314 311
324 323 322 323 321 320 319 319 316 315 314 312 310 307 307 307 306 306 307 307 307 306 305 303 302 300 299 297 294 293 293 296 298 299 301 300 301 304 307 310 309 309 309
323 322 320 315 314 313 313 314 314 314 313 312 311 309 307 307 306 305 305 306 305 303 301 299 298 297 296 294 292 290 291 293 295 296 299 299 300 301 300 304 305 307 308
316 315 314 314 314 313 313 312 312 310 309 309 309 307 307 307 306 305 304 304 302 299 298 298 296 294 293 291 290 289 291 293 295 297 298 300 297 299 300 300 300 300 304
315 315 314 314 313 312 310 310 310 309 308 307 307 306 305 304 303 303 301 300 299 298 297 296 296 294 292 289 287 287 291 293 295 296 298 297 298 297 299 299 300 300 300
314 313 312 311 310 309 308 308 308 308 307 306 305 304 303 302 301 300 299 299 298 297 297 296 296 295 293 290 287 287 288 292 295 296 297 296 295 296 296 298 298 299 300
Wind_Speed
18 16 10 7 8 9 7 7 8 9 9 11 12 13 16 18 18 15 15 16 15 11 12 12 10 12 16 17 19 22 24 24 20 33 31 29 29 32 34 29 32 37 32
18 15 12 9 8 8 8 8 8 9 10 11 13 15 17 18 18 16 15 15 15 14 12 12 9 10 14 15 20 23 25 28 31 25 29 29 30 32 36 35 34 37 40
19 17 13 11 11 10 9 8 9 10 12 13 14 15 17 17 18 19 18 16 14 14 14 13 10 11 14 17 19 20 23 28 27 29 28 29 28 28 30 29 35 35 30
25 20 17 16 13 11 11 10 10 12 13 14 15 16 18 19 19 23 19 16 15 15 16 15 15 13 13 15 17 20 23 26 26 26 27 28 26 30 30 25 25 33 31
21 15 14 14 13 13 13 11 12 14 14 14 16 17 17 17 21 6 7 12 14 18 18 17 17 16 20 20 23 25 25 24 25 24 25 25 25 27 24 24 26 30 32
18 19 15 15 16 16 14 13 14 13 13 14 15 16 15 17 20 20 18 18 17 18 21 19 18 19 21 22 28 25 28 27 29 27 27 25 25 26 30 27 24 22 9
17 16 16 16 15 15 15 15 13 10 13 14 15 18 17 19 18 17 16 16 21 20 20 21 24 21 22 27 26 28 29 36 31 36 32 32 30 32 29 31 30 25 27
23 20 19 18 17 18 18 16 12 12 14 17 17 18 20 22 21 19 18 23 22 23 23 25 23 22 24 26 25 27 29 36 34 37 37 40 38 35 35 30 31 32 31
23 23 21 19 19 19 19 16 14 15 15 16 17 21 21 20 17 15 12 15 22 25 23 22 18 21 24 17 22 23 33 37 41 46 46 47 48 44 39 27 29 27 19
26 24 22 21 20 20 19 16 14 14 17 19 20 19 14 12 22 21 15 16 25 30 23 20 19 17 18 21 20 25 25 35 43 50 46 41 33 40 43 44 35 23 23
22 21 22 22 20 19 16 13 13 18 19 16 18 19 19 19 23 14 14 15 21 21 21 19 14 17 20 20 21 20 28 36 41 42 41 36 16 25 33 44 39 27 25
17 17 17 20 20 17 16 11 15 13 16 18 16 18 22 16 17 13 16 12 16 21 20 17 15 18 15 22 18 15 26 34 37 36 36 36 32 8 26 30 35 35 29
5 10 14 12 12 13 11 8 13 16 21 13 12 16 14 6 13 6 12 16 19 20 17 15 14 9 18 22 15 13 23 32 33 33 33 33 36 30 10 24 25 34 35
7 10 10 10 8 13 16 11 16 13 3 4 7 6 9 9 1 10 13 12 12 12 15 14 8 10 19 22 22 20 19 24 25 27 33 35 37 37 29 9 21 25 24
7 6 10 12 15 20 1 5 2 2 3 3 4 7 7 8 8 14 15 16 15 14 16 12 6 13 17 20 23 24 25 26 27 30 28 31 35 38 34 31 22 11 19
8 10 12 11 14 8 10 8 7 3 4 4 6 6 5 8 11 11 11 12 10 14 12 12 16 17 15 17 19 20 21 24 27 25 27 31 25 29 31 33 30 26 19
8 9 8 8 9 3 3 3 4 1 2 3 4 7 10 9 10 11 10 10 9 14 14 17 16 13 12 13 17 18 19 21 22 29 28 29 29 23 26 28 30 26 28
6 6 7 8 1 4 4 1 2 3 2 1 0 3 6 8 13 14 15 11 8 14 15 16 13 14 15 16 17 19 21 21 22 23 24 24 26 28 21 18 19 21 23
4 4 3 3 5 5 3 2 2 2 2 0 3 3 2 7 10 12 13 12 8 10 12 11 10 11 12 14 14 16 19 24 25 21 22 23 25 24 25 22 23 22 20
1 3 2 3 9 5 4 3 1 1 2 3 3 5 5 6 8 9 9 8 8 7 6 6 7 11 14 17 17 15 18 18 23 24 22 22 22 25 21 22 22 21 21
5 7 1 9 8 5 3 3 4 5 7 5 5 4 5 5 6 5 4 4 4 5 6 6 7 6 9 12 14 17 17 17 19 20 22 21 24 21 22 23 22 19 21
4 9 6 5 8 8 8 11 5 6 4 4 6 3 4 3 2 1 3 2 2 3 6 7 8 9 11 12 13 13 14 14 19 21 19 21 23 21 20 18 20 20 21
6 4 5 8 7 1 5 8 9 3 5 5 5 10 9 6 2 2 3 3 1 5 5 6 7 9 10 10 12 11 11 9 12 15 19 18 20 19 22 19 20 19 20
6 6 5 3 5 5 10 10 2 1 5 5 5 4 3 8 6 2 3 0 4 4 5 5 7 9 9 9 9 10 14 14 15 16 19 17 18 21 19 20 20 22 19
9 10 6 7 8 8 9 7 10 6 5 8 4 4 4 3 2 2 3 3 3 4 5 4 6 5 7 9 11 11 9 11 14 16 16 17 17 17 20 20 19 19 22
6 6 9 8 8 6 6 7 8 5 6 6 6 5 4 5 3 3 3 2 2 4 2 3 3 4 4 7 10 9 8 7 10 14 16 15 15 18 19 18 17 18 17
Wind_Direction
189 185 189 195 210 209 227 243 260 275 282 284 286 288 291 296 294 294 293 288 286 299 313 321 324 339 336 335 332 328 313 318 289 279 273 267 258 257 254 246 244 244 246
190 188 186 197 204 218 228 245 262 276 279 281 280 284 290 293 292 296 292 293 296 298 297 306 311 323 326 328 326 322 325 320 329 276 275 267 258 257 261 258 245 248 251
192 181 186 197 201 215 229 246 260 269 272 275 284 290 293 293 292 286 273 285 283 281 285 295 293 305 303 309 314 323 322 322 335 316 298 270 260 257 260 259 244 245 241
186 189 187 192 202 216 231 243 253 266 274 284 293 292 292 287 283 279 277 271 278 275 282 284 281 277 281 304 312 319 325 324 325 324 305 300 265 257 251 251 243 241 222
184 174 179 187 200 210 227 238 250 265 275 283 288 288 290 292 291 304 287 284 281 280 277 276 277 272 275 294 304 305 316 317 313 312 299 296 287 259 244 240 233 230 236
175 182 191 198 199 209 225 236 242 258 274 287 295 293 294 295 298 309 310 303 292 283 282 276 276 280 290 290 301 293 308 310 303 302 291 284 277 278 258 241 232 221 220
196 198 196 203 205 214 224 232 236 260 279 283 292 293 293 289 291 291 297 298 296 286 286 284 284 288 300 296 296 295 303 313 301 288 281 277 272 264 262 248 240 230 227
195 202 204 205 210 216 223 230 236 242 259 273 278 281 288 287 288 297 300 299 291 293 285 286 288 293 299 299 309 302 308 311 309 303 288 276 269 265 253 252 245 233 237
200 204 208 208 215 220 225 229 238 241 254 259 270 278 281 287 296 311 317 309 303 294 295 292 290 303 309 306 313 311 319 319 323 317 306 286 269 257 248 248 248 235 232
204 206 208 214 219 225 231 230 226 239 247 278 276 281 291 307 298 314 306 291 290 295 295 291 303 315 318 327 330 331 322 325 320 322 320 317 265 247 235 234 227 226 223
204 206 211 216 219 226 228 225 241 246 282 279 292 297 294 294 293 333 309 293 281 292 302 305 311 320 323 332 340 349 344 335 336 331 331 342 299 228 224 219 220 223 215
213 216 221 221 220 223 227 226 253 266 264 264 271 269 283 299 304 326 333 294 293 298 288 298 315 320 323 338 349 8 355 356 345 329 341 355 354 265 208 208 215 219 224
233 222 231 230 214 221 242 213 228 241 250 260 257 271 291 321 334 21 349 308 306 307 307 306 334 325 349 351 5 6 6 356 346 339 335 348 359 355 242 208 213 213 227
249 248 240 217 234 244 246 244 249 268 137 238 295 342 351 330 117 341 327 314 328 334 320 331 354 6 359 11 9 9 7 359 339 344 347 346 4 10 9 3 206 202 211
294 255 241 237 236 238 291 296 91 142 88 41 33 1 9 345 346 340 336 336 342 341 339 347 28 32 19 5 5 6 8 4 0 353 349 355 12 11 17 26 16 18 219
255 227 237 253 283 221 157 132 99 72 350 350 17 18 333 332 330 334 339 334 341 353 347 35 42 38 22 6 357 359 5 2 5 2 358 0 8 13 16 24 35 41 25
246 283 296 268 301 121 81 62 119 47 329 5 53 44 39 24 10 358 348 329 329 3 46 46 38 22 14 3 359 1 360 4 357 13 7 3 6 3 18 24 31 39 35
246 262 266 295 242 102 107 77 173 215 197 298 59 44 54 38 26 13 18 21 60 55 53 49 31 22 13 5 3 6 1 360 9 12 10 8 5 8 10 16 33 43 46
269 348 157 92 73 83 101 95 42 102 154 46 85 265 347 25 35 27 24 35 39 46 50 49 33 27 21 14 11 13 7 16 13 4 14 15 16 16 8 18 27 33 50
204 346 309 201 134 124 110 119 92 24 279 241 63 15 8 45 49 46 39 39 47 49 62 64 47 36 33 29 23 19 23 6 6 10 11 13 12 21 19 19 37 29 20
185 135 156 114 126 134 180 214 225 249 230 124 84 40 53 64 56 51 20 35 37 49 48 36 34 25 22 20 17 11 10 8 11 11 15 15 16 12 24 29 30 30 26
82 161 170 179 207 197 222 219 228 237 238 159 156 155 152 111 113 1 322 348 12 25 42 35 22 31 31 24 17 15 11 6 7 8 12 17 14 20 21 30 29 30 29
167 164 144 107 116 114 277 267 259 260 250 210 198 172 184 178 177 213 258 284 56 45 41 48 38 39 37 40 28 16 26 20 22 10 16 15 14 25 26 28 30 28 30
159 169 181 234 242 254 292 299 226 169 286 274 216 237 223 164 159 139 210 166 78 70 61 63 69 55 51 44 38 28 38 37 37 28 27 23 18 25 29 26 36 34 33
215 206 219 251 222 225 249 236 274 234 220 229 217 219 217 219 212 174 129 123 113 111 97 85 67 68 60 52 45 43 45 45 36 29 36 29 28 27 25 24 29 36 32
241 244 253 259 266 259 274 269 255 237 237 227 226 227 229 222 197 174 169 156 134 127 112 96 100 92 74 31 32 32 38 51 52 49 42 28 31 28 26 26 28 25 36